| time (UTC) | temp F | wind direction | speed MPH | gust MPH | rain 1hr in | rain 24hr in | rain mn in | humidity % | barometer mb |
| 20260504220825 | 80 | 291 | 3.0 | 15.0 | 0.00 | 0.00 | 0.00 | 21 | 997.4 |
| 20260504215803 | 80 | 66 | 7.0 | 18.0 | 0.00 | 0.00 | 0.00 | 23 | 997.3 |
| 20260504214804 | 80 | 90 | 8.0 | 13.0 | 0.00 | 0.00 | 0.00 | 23 | 997.1 |
| 20260504213803 | 80 | 140 | 3.0 | 17.0 | 0.00 | 0.00 | 0.00 | 22 | 997.2 |
| 20260504212804 | 79 | 142 | 10.0 | 16.0 | 0.00 | 0.00 | 0.00 | 24 | 997.2 |
| 20260504211803 | 79 | 155 | 10.0 | 18.0 | 0.00 | 0.00 | 0.00 | 25 | 997.5 |
| 20260504210804 | 80 | 157 | 7.0 | 13.0 | 0.00 | 0.00 | 0.00 | 22 | 997.5 |
| 20260504205803 | 82 | 121 | 7.0 | 19.0 | 0.00 | 0.00 | 0.00 | 21 | 997.3 |
| 20260504204804 | 83 | 222 | 4.0 | 8.0 | 0.00 | 0.00 | 0.00 | 18 | 997.4 |
| 20260504203803 | 83 | 195 | 1.0 | 3.0 | 0.00 | 0.00 | 0.00 | 19 | 997.3 |
| 20260504202804 | 83 | 358 | 2.0 | 9.0 | 0.00 | 0.00 | 0.00 | 20 | 997.4 |
| 20260504201804 | 83 | 301 | 2.0 | 14.0 | 0.00 | 0.00 | 0.00 | 21 | 997.5 |
| 20260504200804 | 83 | 215 | 2.0 | 6.0 | 0.00 | 0.00 | 0.00 | 21 | 997.7 |
| 20260504195825 | 81 | 118 | 4.0 | 18.0 | 0.00 | 0.00 | 0.00 | 20 | 997.8 |
| 20260504194804 | 81 | 189 | 6.0 | 13.0 | 0.00 | 0.00 | 0.00 | 23 | 998.1 |
| 20260504193825 | 80 | 107 | 11.0 | 15.0 | 0.00 | 0.00 | 0.00 | 23 | 998.0 |
| 20260504192803 | 81 | 99 | 10.0 | 13.0 | 0.00 | 0.00 | 0.00 | 23 | 998.0 |
| 20260504191803 | 81 | 74 | 8.0 | 13.0 | 0.00 | 0.00 | 0.00 | 22 | 998.0 |
| 20260504190803 | 81 | 88 | 9.0 | 12.0 | 0.00 | 0.00 | 0.00 | 22 | 998.0 |
| 20260504185804 | 81 | 78 | 6.0 | 14.0 | 0.00 | 0.00 | 0.00 | 23 | 998.0 |
| 20260504184803 | 81 | 56 | 10.0 | 14.0 | 0.00 | 0.00 | 0.00 | 23 | 998.2 |
| 20260504183825 | 82 | 57 | 8.0 | 13.0 | 0.00 | 0.00 | 0.00 | 21 | 998.4 |
| 20260504182824 | 82 | 104 | 8.0 | 13.0 | 0.00 | 0.00 | 0.00 | 22 | 998.5 |
| 20260504181803 | 83 | 86 | 3.0 | 9.0 | 0.00 | 0.00 | 0.00 | 22 | 998.6 |
| 20260504180825 | 83 | 90 | 4.0 | 11.0 | 0.00 | 0.00 | 0.00 | 23 | 998.6 |
| 20260504175804 | 83 | 65 | 7.0 | 12.0 | 0.00 | 0.00 | 0.00 | 22 | 998.8 |
| 20260504174804 | 84 | 60 | 8.0 | 15.0 | 0.00 | 0.00 | 0.00 | 25 | 999.1 |
| 20260504173803 | 83 | 64 | 9.0 | 13.0 | 0.00 | 0.00 | 0.00 | 25 | 999.2 |
| 20260504172804 | 83 | 34 | 9.0 | 13.0 | 0.00 | 0.00 | 0.00 | 24 | 999.2 |
| 20260504171803 | 83 | 48 | 8.0 | 13.0 | 0.00 | 0.00 | 0.00 | 25 | 999.2 |
| 20260504170803 | 82 | 49 | 8.0 | 16.0 | 0.00 | 0.00 | 0.00 | 27 | 999.4 |
| 20260504150804 | 78 | 288 | 1.0 | 2.0 | 0.00 | 0.00 | 0.00 | 34 | 1000.0 |
| 20260504140803 | 67 | 293 | 1.0 | 4.0 | 0.00 | 0.00 | 0.00 | 51 | 1000.6 |
| 20260504130804 | 52 | 292 | 2.0 | 5.0 | 0.00 | 0.00 | 0.00 | 72 | 1000.6 |
| 20260504081804 | 46 | 299 | 2.0 | 4.0 | 0.00 | 0.00 | 0.00 | 71 | 1000.7 |
| 20260504080803 | 47 | 295 | 1.0 | 2.0 | 0.00 | 0.00 | 0.00 | 69 | 1000.7 |
| 20260504045803 | 54 | 18 | 3.0 | 6.0 | 0.00 | 0.00 | 0.00 | 57 | 1001.8 |
| 20260504044803 | 55 | 15 | 3.0 | 5.0 | 0.00 | 0.00 | 0.00 | 55 | 1001.9 |
| 20260504043803 | 55 | 19 | 4.0 | 5.0 | 0.00 | 0.00 | 0.00 | 54 | 1002.0 |
| 20260504042803 | 55 | 44 | 4.0 | 6.0 | 0.00 | 0.00 | 0.00 | 53 | 1002.2 |
| 20260504041803 | 56 | 58 | 4.0 | 8.0 | 0.00 | 0.00 | 0.00 | 52 | 1002.2 |
| 20260504040803 | 57 | 47 | 5.0 | 8.0 | 0.00 | 0.00 | 0.00 | 52 | 1002.3 |
| 20260504035804 | 57 | 45 | 5.0 | 7.0 | 0.00 | 0.00 | 0.00 | 51 | 1002.3 |
| 20260504034803 | 58 | 57 | 5.0 | 7.0 | 0.00 | 0.00 | 0.00 | 50 | 1002.4 |
| 20260504033803 | 59 | 61 | 4.0 | 7.0 | 0.00 | 0.00 | 0.00 | 48 | 1002.4 |
| 20260504032803 | 59 | 75 | 5.0 | 7.0 | 0.00 | 0.00 | 0.00 | 48 | 1002.5 |
| 20260504030804 | 59 | 65 | 4.0 | 10.0 | 0.00 | 0.00 | 0.00 | 46 | 1002.2 |
| 20260504025803 | 60 | 66 | 4.0 | 7.0 | 0.00 | 0.00 | 0.00 | 44 | 1002.3 |
| 20260504024804 | 61 | 57 | 5.0 | 7.0 | 0.00 | 0.00 | 0.00 | 42 | 1002.2 |
| 20260504023803 | 63 | 58 | 5.0 | 8.0 | 0.00 | 0.00 | 0.00 | 38 | 1002.3 |
| 20260504022824 | 65 | 54 | 5.0 | 8.0 | 0.00 | 0.00 | 0.00 | 36 | 1002.3 |
| 20260504021824 | 67 | 54 | 6.0 | 10.0 | 0.00 | 0.00 | 0.00 | 35 | 1002.3 |
| 20260504020804 | 68 | 35 | 4.0 | 6.0 | 0.00 | 0.00 | 0.00 | 34 | 1002.1 |
| 20260504015803 | 69 | 25 | 4.0 | 6.0 | 0.00 | 0.00 | 0.00 | 32 | 1002.1 |
| 20260504014803 | 71 | 36 | 4.0 | 6.0 | 0.00 | 0.00 | 0.00 | 31 | 1002.1 |
| 20260504013824 | 72 | 47 | 4.0 | 5.0 | 0.00 | 0.00 | 0.00 | 29 | 1002.1 |
| 20260504012803 | 73 | 55 | 3.0 | 5.0 | 0.00 | 0.00 | 0.00 | 29 | 1002.2 |
| 20260504011802 | 75 | 47 | 4.0 | 7.0 | 0.00 | 0.00 | 0.00 | 27 | 1002.2 |
| 20260504010803 | 76 | 48 | 5.0 | 8.0 | 0.00 | 0.00 | 0.00 | 26 | 1002.2 |
| 20260504005802 | 77 | 54 | 6.0 | 11.0 | 0.00 | 0.00 | 0.00 | 25 | 1002.1 |
| 20260504004803 | 78 | 43 | 6.0 | 16.0 | 0.00 | 0.00 | 0.00 | 24 | 1002.2 |
| 20260504003803 | 79 | 12 | 8.0 | 12.0 | 0.00 | 0.00 | 0.00 | 21 | 1002.2 |
| 20260504002803 | 80 | 359 | 4.0 | 8.0 | 0.00 | 0.00 | 0.00 | 20 | 1002.2 |
| 20260504001804 | 80 | 355 | 4.0 | 9.0 | 0.00 | 0.00 | 0.00 | 20 | 1002.2 |
| 20260504000803 | 80 | 330 | 3.0 | 7.0 | 0.00 | 0.00 | 0.00 | 19 | 1002.3 |
| 20260503235803 | 81 | 325 | 1.0 | 4.0 | 0.00 | 0.00 | 0.00 | 19 | 1002.3 |
| 20260503234803 | 81 | 304 | 2.0 | 7.0 | 0.00 | 0.00 | 0.00 | 18 | 1002.4 |
| 20260503233802 | 82 | 314 | 2.0 | 6.0 | 0.00 | 0.00 | 0.00 | 16 | 1002.3 |
| 20260503232824 | 82 | 313 | 3.0 | 9.0 | 0.00 | 0.00 | 0.00 | 17 | 1002.4 |
| 20260503230803 | 83 | 357 | 6.0 | 12.0 | 0.00 | 0.00 | 0.00 | 17 | 1002.5 |
| 20260503225804 | 83 | 332 | 4.0 | 12.0 | 0.00 | 0.00 | 0.00 | 16 | 1002.6 |
| 20260503224803 | 85 | 345 | 5.0 | 10.0 | 0.00 | 0.00 | 0.00 | 16 | 1002.6 |
| 20260503223803 | 86 | 308 | 4.0 | 10.0 | 0.00 | 0.00 | 0.00 | 15 | 1002.6 |
| 20260503222824 | 86 | 297 | 5.0 | 7.0 | 0.00 | 0.00 | 0.00 | 18 | 1002.7 |
| 20260503221803 | 85 | 290 | 4.0 | 7.0 | 0.00 | 0.00 | 0.00 | 18 | 1002.8 |